Notices

What's New in latest Release from April 7th, 2021:

- Updated Glossary, including Speed of Maximum Gust, and Total Hourly Precipitation

- Updated national and regional climate services offices contacts and prices information

- Addition of station inventory lists for 1981-2010, 1971-2000, and 1961-1990 Normals.

If you haven't already, please take our survey and provide feedback about our website: https://eccc.sondage-survey.ca/f/LanguageSelection.aspx?s=442ca660-fcf1-47c0-95a9-59707d6fd709

Hourly Data Report for December 05, 2019

SAINT JOHN A
NEW BRUNSWICK
Current Station Operator: NAVCAN

45°18'58.000" N
65°53'24.000" W
108.80 m
8104901
71609
YSJ

Download Data

Hourly Data (December 2019)
Hourly Data Report for December 5, 2019
TIME
LST
Temp Definition
°C
Dew Point Definition
°C
Rel Hum Definition
%
Precip. Amount Definition
mm

Wind Dir Definition
10's deg

Wind Spd Definition
km/h
Visibility Definition
km
Stn Press Definition
kPa
Hmdx Definition


Wind Chill Definition


Weather Definition


00:00 -2.7 -3.9 91   6 4 24.1 98.40   -4 LegendNANA
01:00 -2.3 -3.8 89   5 5 24.1 98.34   -4 Snow
02:00 -1.6 -3.2 90   4 5 6.4 98.32   -3 Snow
03:00 -1.6 -2.2 96   4 5 4.8 98.30   -3 Snow
04:00 -1.2 -1.6 97   3 5 4.8 98.28   -3 Snow
05:00 -1.4 -1.7 97   3 7 3.2 98.25   -4 Snow
06:00 -1.4 -1.8 97   2 6 3.2 98.26   -4 Snow
07:00 -1.3 -1.6 97   2 3 3.2 98.30   -2 Snow
08:00 -1.4 -1.9 97   36 8 4.8 98.33   -4 Snow
09:00 -1.6 -2.1 96   36 10 2.4 98.37   -5 Snow
10:00 -1.6 -2.4 94   35 13 2.4 98.41   -6 Snow
11:00 -1.4 -2.4 93   35 14 3.2 98.41   -6 Snow
12:00 -1.3 -2.5 92   35 18 6.4 98.38   -7 Snow
13:00 -1.2 -2.8 89   34 18 6.4 98.40   -6 Snow
14:00 -0.8 -2.2 90   34 16 19.3 98.40   -6 Cloudy
15:00 -1.0 -3.1 86   32 15 24.1 98.45   -6 LegendNANA
16:00 -1.6 -3.6 86   32 9 24.1 98.56   -5 LegendNANA
17:00 -3.5 -5.0 89   29 4 24.1 98.64   -5 Mainly Clear
18:00 -2.0 -3.1 92   28 7 24.1 98.74   -5 LegendNANA
19:00 -1.6 -3.0 90   28 4 24.1 98.83   -3 LegendNANA
20:00 -1.3 -2.7 90   28 10 24.1 98.87   -5 Cloudy
21:00 -2.1 -3.3 91   29 8 24.1 98.91   -5 LegendNANA
22:00 -2.4 -3.3 93   26 11 24.1 99.01   -6 LegendNANA
23:00 -2.6 -3.9 91   27 13 24.1 99.08   -7 Mainly Clear

Notes on Data Quality.

Legend

  • E = Estimated
  • M = Missing
  • NA = Not Available*
  • [empty] = Indicates an unobserved value
Date modified: